Wind_Speed
43 43 41 41 39 35 31 35 36 38 38 38 40 45 49 45 41 40 42 41 44 44 43 39 41 42 42 39 40 41 42 41 41 41 42 41 38 34 35 35 32 31 31 33 34 37 38 35 35
40 42 44 43 37 37 42 41 40 45 42 40 40 43 47 47 44 43 43 43 44 43 43 45 45 44 42 41 42 43 44 43 42 42 41 40 39 36 38 37 35 33 33 33 33 36 35 35 34
41 44 45 44 43 45 46 47 51 49 42 43 40 43 40 43 42 43 44 42 45 46 44 45 45 44 45 46 46 46 46 46 46 46 42 41 40 38 39 38 35 34 35 35 36 35 34 35 36
41 44 47 50 50 47 44 46 51 48 45 47 38 39 38 40 45 44 45 44 41 46 46 46 46 47 48 48 47 47 48 48 48 45 44 41 40 38 38 39 38 36 35 36 36 37 34 32 34
49 53 53 50 44 41 50 50 50 46 46 48 45 39 38 44 44 44 46 47 43 45 48 47 48 48 48 49 48 46 47 47 45 43 43 44 43 40 40 38 37 37 36 37 39 40 39 38 37
50 53 56 55 56 48 48 51 52 48 47 52 42 41 38 42 44 44 44 45 45 44 43 46 46 44 45 47 47 47 48 46 45 45 46 47 45 43 43 39 38 36 37 38 40 42 41 41 40
56 53 54 56 52 49 50 51 51 54 54 50 40 41 40 45 46 45 44 43 44 43 44 41 43 46 47 48 48 49 49 48 49 48 49 50 46 44 43 43 43 42 39 39 38 40 41 40 40
48 50 51 50 49 49 52 55 58 61 53 39 39 39 44 42 43 47 42 43 44 43 43 46 47 47 44 44 47 48 49 50 52 51 51 49 47 44 47 49 46 42 39 38 39 39 39 40 40
49 50 53 53 54 58 57 56 57 55 47 39 41 44 41 43 45 42 41 41 43 45 46 46 46 46 45 46 48 50 50 50 52 53 54 51 50 47 47 49 52 43 42 39 39 39 37 36 34
53 57 56 56 60 63 57 58 55 49 47 38 39 43 43 44 43 42 43 43 45 49 49 48 49 51 49 51 50 50 53 51 53 53 55 56 54 51 35 39 39 45 48 42 40 36 35 34 35
57 61 57 56 56 56 55 48 43 44 38 35 39 45 47 48 42 44 44 46 48 49 51 54 53 54 54 55 55 54 52 51 53 54 58 59 58 51 58 45 41 48 50 47 43 39 36 32 33
57 60 53 51 50 46 42 46 43 40 39 37 40 45 48 52 52 46 44 48 51 51 55 56 55 55 55 55 55 58 58 58 60 62 59 63 63 60 59 57 51 51 54 53 50 47 43 40 44
52 48 47 41 39 40 39 44 46 44 37 39 43 42 44 47 48 45 46 49 53 55 56 58 57 58 60 61 63 63 63 62 59 56 59 61 69 69 69 68 69 69 64 59 58 58 61 60 52
40 39 36 36 41 42 46 43 45 43 40 43 48 46 48 54 50 49 51 54 54 53 55 60 61 61 62 63 64 64 63 63 63 61 57 59 67 73 74 73 72 72 69 65 61 64 64 65 63
35 42 48 49 50 43 43 48 49 48 47 48 50 59 58 59 59 59 59 60 62 59 57 61 65 67 68 67 66 65 64 63 64 65 64 59 62 68 71 75 74 75 73 71 69 68 67 68 67
46 47 51 53 52 49 43 47 48 56 54 54 55 56 57 58 60 65 67 67 65 61 61 63 65 67 70 72 71 69 69 72 72 72 65 62 59 62 67 69 72 73 73 74 75 74 72 72 72
53 49 52 54 52 51 43 46 53 59 61 61 62 62 64 68 66 66 69 74 70 68 69 70 72 74 76 75 73 74 74 73 72 72 72 68 63 62 65 67 69 71 71 74 77 77 77 78 78
56 54 55 58 58 55 55 54 57 61 66 70 70 68 65 66 70 71 68 69 73 73 72 72 74 77 76 74 75 75 75 76 76 72 71 69 70 69 67 67 70 72 74 74 75 76 79 79 81
57 54 55 59 59 57 57 61 66 70 69 68 72 71 70 71 70 70 70 74 76 76 75 77 78 79 79 79 78 79 80 80 81 78 76 74 73 75 79 77 76 75 78 78 79 78 80 79 82
64 60 59 60 66 61 59 61 66 71 76 81 80 74 73 71 73 79 84 84 84 84 84 83 84 82 82 82 83 84 84 83 82 82 82 80 81 81 81 81 80 78 75 78 81 83 84 84 86
64 66 65 67 69 71 67 63 72 77 82 86 86 81 80 83 86 90 90 86 84 81 80 80 79 80 82 84 86 88 89 89 89 88 89 86 87 85 85 86 86 84 82 81 82 86 88 90 88
68 72 72 71 73 74 81 74 78 83 88 92 91 94 93 89 91 92 87 89 85 82 82 81 81 83 87 90 92 91 91 93 93 93 93 92 90 91 92 91 92 91 90 88 88 88 90 91 94
76 80 79 78 76 76 79 87 78 84 93 97 96 97 99 96 94 92 88 92 91 87 90 89 87 89 92 95 97 97 96 97 97 99 97 96 95 94 92 91 92 92 91 91 90 92 91 92 95
82 83 82 85 85 82 88 97 81 92 95 98 101 103 98 96 95 88 89 89 89 93 99 99 99 102 101 101 102 102 102 103 103 99 94 93 92 89 89 90 91 92 92 93 95 98 100 101 99
86 86 89 91 91 90 94 99 92 91 89 93 98 102 102 98 94 90 92 91 98 106 113 113 115 114 107 105 104 107 108 107 96 88 83 83 80 82 84 87 88 87 87 88 91 95 99 100 99
89 93 96 102 102 97 95 99 99 98 99 104 105 103 102 94 91 88 92 107 115 120 123 114 113 114 113 111 108 105 97 83 80 74 70 72 74 78 80 80 75 72 73 77 81 84 87 89 92
99 103 102 105 102 101 100 100 103 106 102 102 103 97 96 91 97 107 113 120 130 134 123 120 118 118 114 107 98 89 80 75 73 70 70 70 70 71 71 68 65 66 68 69 71 74 77 78 80
108 108 107 110 113 111 99 100 94 93 94 94 100 101 97 101 107 118 122 131 135 131 117 118 120 114 97 93 87 80 78 69 63 66 67 68 68 69 70 66 64 63 62 63 63 63 63 65 67
111 113 113 113 115 111 112 104 90 92 95 103 109 112 110 118 123 128 133 135 120 110 106 103 98 93 86 82 77 76 73 66 59 57 60 61 63 65 66 63 60 58 57 57 57 58 60 61 62
116 117 116 116 118 118 110 97 96 97 113 106 113 121 127 134 133 138 139 129 107 99 91 86 81 80 84 82 78 76 69 66 62 58 58 59 60 65 62 58 56 55 53 54 54 56 57 57 57
Wind_Direction
288 285 284 285 287 287 290 293 291 294 302 313 318 315 308 302 298 296 294 292 293 293 294 294 293 294 291 283 285 282 282 281 282 290 296 291 290 290 293 294 291 294 300 287 282 281 284 281 282
286 282 282 286 287 283 291 289 291 296 301 313 318 322 312 296 293 295 292 291 292 289 292 294 294 292 286 282 283 283 285 283 283 291 292 291 291 286 284 291 292 291 295 292 292 288 284 282 282
296 284 281 279 282 285 287 292 293 297 298 304 317 315 303 299 296 292 290 291 291 290 292 289 291 287 284 282 284 284 283 287 284 289 286 286 290 285 281 284 285 288 291 294 296 293 288 289 290
292 296 293 291 291 287 289 293 288 289 291 307 310 309 299 293 296 295 295 292 287 286 287 286 286 284 281 281 284 284 283 286 287 288 287 289 289 284 284 281 285 287 286 291 291 292 290 292 293
282 287 292 296 299 302 301 297 288 287 295 304 310 305 296 293 298 302 303 296 289 284 283 282 282 285 283 283 283 285 286 288 287 287 286 285 287 284 283 280 279 286 282 283 285 289 289 289 292
283 285 285 287 292 298 292 293 284 289 301 303 299 297 292 291 297 305 298 293 289 286 288 288 288 288 287 284 282 284 286 285 286 286 283 285 284 282 280 280 277 280 281 281 280 285 290 288 293
283 282 283 289 293 289 291 291 292 293 296 298 290 289 289 296 301 304 301 292 287 286 287 289 290 290 286 282 282 284 284 284 283 285 284 286 285 284 283 279 276 278 279 279 280 283 286 288 291
281 282 282 284 284 284 286 288 290 291 291 288 290 287 290 298 299 300 295 290 288 286 286 285 286 287 289 283 280 279 282 284 284 283 283 284 284 287 288 284 278 277 274 276 280 283 284 287 287
281 277 279 282 283 283 285 286 289 287 285 282 286 289 291 297 298 296 297 290 285 285 282 283 284 284 283 283 281 280 279 278 279 281 282 280 280 282 279 279 279 284 281 279 279 281 280 279 281
281 279 280 282 283 281 282 285 284 278 283 288 289 292 293 294 292 291 296 291 284 282 283 282 281 282 283 286 285 283 287 283 278 275 276 277 280 282 268 269 271 275 270 270 273 271 275 273 275
286 277 279 282 283 280 285 281 279 282 280 285 291 291 294 295 290 294 295 293 279 277 275 280 283 281 282 282 283 285 283 283 285 284 275 272 271 269 270 272 270 265 266 269 271 268 265 262 267
285 282 283 282 279 280 284 285 281 277 282 285 284 287 294 296 295 295 295 290 282 273 273 276 278 278 279 281 281 282 285 286 285 286 283 268 264 264 264 261 263 266 268 272 268 263 257 259 260
288 283 280 277 282 288 296 286 280 282 285 284 283 285 289 295 302 304 299 294 287 282 278 278 278 279 280 281 282 284 284 285 289 291 288 281 267 261 265 266 266 267 264 263 263 262 260 257 258
284 278 279 280 289 297 303 290 284 285 279 282 287 294 298 300 301 304 301 299 293 290 287 283 282 281 281 282 284 285 285 286 286 284 286 283 275 269 264 265 267 269 266 263 257 259 260 262 261
275 281 284 286 293 295 300 287 283 284 285 279 284 302 303 303 300 299 296 292 293 300 296 291 289 287 286 286 286 286 286 286 286 288 288 288 276 270 269 266 266 265 267 265 259 256 254 256 258
283 284 286 289 289 289 294 292 293 288 287 285 294 298 308 304 303 302 299 296 299 297 292 292 290 288 290 290 290 287 288 289 291 290 288 288 281 271 268 267 268 267 266 266 263 260 256 252 253
283 286 283 288 288 285 285 289 293 293 289 289 290 296 297 297 299 302 300 298 296 294 293 292 291 290 292 293 292 291 291 289 290 290 289 288 285 278 272 268 268 268 268 266 263 261 259 256 251
288 284 284 283 284 281 289 288 289 286 287 290 292 294 297 297 298 297 295 294 294 294 293 290 290 290 289 288 288 287 288 288 288 287 285 285 286 284 278 274 271 269 268 266 265 263 258 255 253
285 286 281 283 283 281 283 288 287 285 286 290 292 294 295 295 296 295 291 289 287 288 288 289 288 287 288 287 286 286 286 286 285 283 282 279 278 279 283 281 278 272 269 267 263 262 260 258 254
284 287 286 288 286 285 286 289 291 290 291 291 289 294 295 293 292 294 293 292 291 289 288 289 288 285 284 284 284 286 287 286 284 282 281 278 278 276 276 274 276 274 270 268 266 262 260 258 254
286 284 286 287 290 292 289 288 289 291 291 290 293 294 293 293 290 292 295 293 292 290 289 289 286 285 286 287 288 288 287 285 284 282 280 279 279 276 274 273 272 273 272 272 268 263 260 258 257
288 287 286 286 287 288 292 288 292 292 291 292 292 295 295 294 295 297 294 292 291 290 288 286 287 288 287 287 287 287 285 284 284 281 278 277 276 276 273 272 271 271 270 270 269 265 261 258 258
286 286 286 285 285 284 284 283 284 289 292 293 293 293 293 294 295 298 294 293 294 295 292 287 286 286 287 287 287 287 288 291 289 285 280 278 277 275 272 271 269 269 270 269 266 265 262 260 257
284 283 282 283 285 285 285 284 287 287 286 287 287 289 290 292 294 294 295 299 298 301 301 301 299 296 294 293 292 291 292 293 291 287 282 280 277 273 271 269 269 269 269 267 266 264 262 260 258
284 283 281 283 283 284 284 286 290 287 288 287 287 288 290 293 292 298 293 299 297 298 299 297 297 297 296 294 293 293 293 291 287 284 281 278 275 273 271 271 271 270 269 267 265 262 260 258 256
281 281 285 285 284 284 285 286 285 285 287 288 289 289 290 290 298 299 297 299 299 299 302 299 296 297 297 295 292 290 290 290 287 283 280 277 274 273 273 272 270 268 265 265 265 265 264 263 261
283 285 282 282 284 283 284 286 287 290 289 287 290 293 293 297 296 296 297 298 299 299 299 294 296 296 295 294 293 292 291 290 287 283 280 278 275 273 272 270 267 265 267 268 268 268 266 265 264
282 282 284 287 290 291 289 288 290 292 288 295 301 297 295 294 295 296 296 300 299 299 297 296 295 295 294 293 291 292 289 288 285 286 280 278 276 275 272 268 266 268 269 271 269 268 267 265 263
280 281 282 285 290 292 291 292 288 297 295 292 292 293 294 293 294 295 297 301 299 296 294 294 294 294 291 291 290 294 294 294 290 283 279 276 276 275 272 269 268 265 268 270 270 270 269 267 265
281 283 284 284 289 293 294 293 289 285 291 287 288 289 292 295 296 299 299 299 295 295 293 293 294 294 294 294 295 293 293 294 291 284 277 275 273 274 274 271 267 266 269 271 271 270 271 270 268
Height
10879 10876 10874 10875 10876 10878 10879 10875 10870 10867 10874 10873 10867 10857 10850 10849 10850 10850 10847 10847 10843 10840 10838 10838 10837 10834 10832 10830 10827 10824 10823 10823 10823 10823 10823 10822 10821 10820 10819 10819 10818 10818 10817 10815 10813 10813 10812 10810 10809
10872 10868 10866 10867 10869 10870 10870 10868 10864 10860 10866 10864 10861 10858 10845 10836 10840 10839 10839 10839 10835 10833 10832 10829 10828 10826 10823 10820 10817 10815 10815 10815 10816 10816 10816 10815 10815 10814 10812 10811 10811 10810 10809 10807 10805 10805 10804 10804 10804
10865 10861 10858 10860 10864 10863 10861 10858 10854 10852 10855 10856 10858 10854 10844 10834 10833 10831 10828 10832 10829 10825 10823 10822 10819 10816 10813 10810 10809 10808 10808 10808 10808 10808 10808 10807 10807 10806 10805 10804 10804 10803 10802 10800 10798 10797 10797 10797 10798
10858 10854 10850 10851 10854 10855 10854 10850 10846 10846 10844 10845 10848 10845 10838 10831 10825 10825 10820 10822 10825 10818 10816 10813 10810 10806 10804 10803 10803 10802 10801 10801 10800 10800 10800 10799 10798 10799 10798 10798 10797 10797 10795 10793 10791 10790 10790 10790 10791
10850 10846 10842 10843 10847 10849 10843 10840 10834 10838 10833 10831 10834 10832 10827 10822 10821 10818 10814 10811 10810 10807 10804 10801 10799 10798 10798 10798 10797 10796 10794 10793 10792 10791 10791 10790 10789 10789 10790 10790 10790 10790 10789 10787 10784 10783 10783 10783 10783
10841 10836 10831 10833 10841 10841 10833 10831 10822 10828 10832 10830 10823 10819 10820 10814 10814 10814 10807 10803 10797 10796 10795 10793 10792 10791 10792 10791 10789 10788 10786 10784 10784 10783 10780 10779 10779 10779 10781 10782 10781 10782 10783 10782 10779 10777 10776 10776 10776
10833 10825 10821 10823 10831 10827 10823 10821 10817 10816 10819 10820 10818 10811 10809 10808 10806 10805 10798 10794 10791 10790 10787 10785 10784 10784 10783 10781 10781 10779 10777 10776 10773 10772 10770 10769 10770 10771 10771 10771 10772 10773 10774 10774 10773 10772 10770 10769 10769
10822 10816 10813 10815 10819 10815 10812 10812 10809 10803 10809 10810 10807 10803 10799 10798 10801 10796 10790 10785 10782 10780 10779 10778 10776 10776 10774 10772 10771 10771 10768 10767 10765 10762 10761 10760 10760 10760 10760 10761 10761 10763 10764 10766 10765 10764 10763 10763 10761
10811 10807 10806 10807 10804 10801 10802 10800 10802 10791 10794 10800 10798 10793 10794 10789 10787 10786 10783 10780 10774 10771 10768 10767 10767 10768 10765 10763 10762 10761 10760 10759 10754 10753 10752 10751 10750 10750 10749 10750 10750 10753 10754 10757 10757 10757 10755 10754 10753
10802 10794 10797 10798 10793 10787 10791 10791 10789 10787 10786 10785 10784 10783 10780 10782 10778 10777 10774 10771 10768 10762 10757 10757 10758 10757 10756 10754 10752 10751 10751 10748 10746 10743 10740 10739 10739 10739 10737 10737 10740 10744 10743 10744 10746 10747 10747 10749 10748
10789 10780 10787 10785 10780 10776 10779 10780 10776 10775 10781 10780 10775 10770 10768 10767 10767 10765 10765 10763 10759 10755 10749 10747 10746 10745 10746 10744 10742 10739 10739 10739 10735 10733 10730 10727 10726 10726 10726 10727 10730 10731 10732 10733 10736 10738 10739 10739 10739
10774 10770 10775 10774 10765 10767 10771 10766 10768 10768 10769 10774 10770 10764 10761 10756 10753 10754 10752 10750 10748 10745 10741 10740 10738 10735 10732 10730 10730 10728 10727 10724 10723 10720 10716 10714 10713 10713 10715 10717 10719 10718 10719 10722 10723 10726 10727 10728 10729
10762 10759 10762 10764 10756 10757 10759 10759 10756 10758 10762 10760 10758 10760 10758 10750 10744 10740 10737 10733 10733 10734 10732 10729 10727 10726 10724 10720 10716 10715 10712 10710 10708 10704 10701 10699 10696 10697 10696 10698 10700 10702 10705 10708 10709 10710 10711 10713 10717
10753 10750 10751 10752 10753 10748 10745 10744 10746 10749 10752 10748 10744 10746 10747 10744 10739 10734 10726 10718 10716 10720 10719 10714 10712 10709 10708 10706 10704 10701 10698 10696 10694 10691 10687 10684 10681 10680 10680 10681 10682 10683 10686 10690 10692 10692 10695 10696 10698
10746 10743 10741 10740 10741 10737 10739 10733 10733 10734 10739 10738 10735 10733 10733 10733 10728 10722 10716 10709 10705 10707 10704 10698 10695 10692 10690 10687 10686 10685 10682 10677 10674 10673 10671 10669 10666 10664 10663 10663 10663 10664 10667 10669 10673 10675 10678 10679 10681
10734 10734 10731 10726 10729 10728 10730 10722 10721 10718 10723 10725 10725 10723 10724 10720 10713 10705 10700 10696 10693 10692 10688 10684 10680 10675 10672 10670 10670 10667 10665 10658 10655 10655 10652 10651 10650 10649 10646 10644 10643 10644 10647 10650 10652 10655 10658 10663 10665
10723 10723 10722 10714 10716 10715 10719 10717 10711 10704 10703 10709 10710 10714 10715 10709 10704 10694 10684 10673 10678 10676 10672 10669 10664 10658 10653 10650 10650 10649 10645 10638 10635 10634 10632 10633 10632 10629 10629 10627 10626 10626 10627 10628 10630 10633 10637 10643 10647
10712 10711 10708 10704 10700 10704 10706 10705 10702 10695 10688 10687 10689 10697 10699 10696 10692 10684 10676 10669 10657 10654 10651 10650 10646 10641 10636 10630 10628 10626 10625 10619 10616 10613 10612 10611 10611 10610 10609 10608 10607 10608 10608 10610 10610 10610 10613 10619 10623
10698 10698 10696 10686 10685 10690 10694 10694 10686 10683 10680 10680 10678 10682 10685 10680 10675 10668 10661 10655 10648 10644 10639 10634 10630 10623 10618 10613 10609 10607 10605 10602 10597 10594 10590 10587 10587 10587 10587 10586 10586 10587 10587 10588 10589 10588 10589 10593 10596
10682 10682 10681 10676 10667 10675 10678 10680 10672 10663 10656 10651 10661 10670 10670 10666 10659 10650 10642 10635 10631 10626 10620 10614 10609 10604 10599 10596 10592 10588 10583 10580 10577 10574 10570 10567 10563 10561 10560 10560 10560 10561 10563 10564 10565 10566 10565 10567 10571
10668 10666 10664 10663 10657 10651 10659 10666 10656 10649 10640 10632 10632 10645 10649 10648 10639 10630 10621 10611 10609 10604 10598 10593 10589 10583 10579 10573 10568 10565 10560 10557 10553 10549 10546 10543 10539 10537 10536 10535 10533 10533 10535 10537 10539 10540 10541 10540 10543
10652 10645 10647 10648 10646 10645 10632 10647 10640 10626 10619 10612 10615 10613 10614 10613 10610 10604 10596 10588 10587 10584 10578 10575 10569 10564 10557 10551 10544 10539 10534 10528 10524 10521 10518 10516 10513 10510 10509 10507 10506 10507 10506 10508 10510 10511 10513 10515 10515
10637 10630 10626 10627 10630 10629 10628 10614 10637 10620 10605 10592 10594 10590 10589 10589 10586 10582 10573 10563 10562 10561 10555 10551 10545 10538 10533 10526 10518 10510 10504 10498 10491 10487 10485 10483 10482 10480 10480 10478 10477 10477 10477 10477 10478 10480 10483 10485 10487
10617 10615 10609 10605 10603 10611 10605 10586 10622 10600 10595 10588 10582 10576 10573 10570 10567 10560 10550 10541 10534 10533 10525 10522 10518 10511 10504 10497 10490 10481 10475 10467 10460 10453 10448 10447 10447 10447 10446 10446 10447 10446 10446 10446 10446 10447 10447 10451 10454
10593 10591 10588 10586 10586 10593 10586 10569 10582 10573 10574 10565 10555 10553 10554 10550 10544 10534 10527 10519 10510 10505 10501 10494 10487 10480 10473 10468 10460 10450 10444 10437 10430 10424 10419 10417 10416 10416 10416 10416 10416 10416 10415 10414 10413 10412 10413 10415 10420
10573 10568 10566 10555 10558 10569 10569 10563 10556 10552 10549 10538 10530 10529 10527 10526 10523 10515 10508 10501 10487 10475 10474 10462 10452 10449 10442 10436 10430 10423 10415 10410 10403 10397 10394 10392 10390 10389 10388 10389 10389 10389 10388 10387 10386 10386 10387 10389 10392
10555 10551 10543 10535 10539 10541 10546 10541 10529 10524 10518 10513 10506 10500 10498 10496 10496 10494 10488 10481 10465 10447 10445 10430 10423 10417 10410 10400 10395 10393 10390 10386 10382 10376 10371 10369 10367 10365 10364 10364 10365 10364 10364 10364 10364 10363 10363 10364 10365
10526 10521 10517 10510 10509 10512 10523 10522 10507 10495 10488 10486 10480 10472 10470 10472 10469 10466 10460 10453 10435 10417 10409 10400 10390 10385 10382 10372 10369 10370 10368 10365 10361 10355 10351 10348 10346 10344 10343 10342 10342 10342 10342 10342 10343 10342 10341 10341 10342
10499 10495 10493 10489 10485 10490 10490 10495 10488 10478 10466 10463 10451 10445 10457 10454 10446 10440 10434 10420 10407 10396 10383 10377 10367 10361 10355 10351 10348 10343 10342 10341 10338 10335 10332 10328 10325 10322 10320 10321 10321 10322 10322 10322 10323 10323 10322 10322 10323
10472 10472 10464 10463 10464 10459 10458 10471 10466 10458 10450 10439 10436 10435 10431 10426 10419 10410 10397 10385 10378 10368 10360 10353 10347 10338 10327 10323 10323 10321 10321 10319 10317 10313 10311 10307 10303 10301 10300 10301 10301 10302 10303 10303 10304 10305 10304 10304 10304